When you browse on this site, cookies collect data to enhance your experience and personalize the content and advertising you see.
Visit our Privacy Policy to learn more. By continuing to use the site, you agree to this use of cookies and data.
EN

Hourly Weather Wiesbaden

Today, 14 August, Friday

Time Temperature Precipitation Wind Pressure Humidity
00:00 +24°C° 0.3 mm 1 mps 746 mmHg 71%
01:00 +24°C° 0 mm 1 mps 747 mmHg 71%
02:00 +23°C° 0.3 mm 1 mps 746 mmHg 74%
03:00 +23°C° 0.3 mm 1 mps 746 mmHg 76%
04:00 +22°C° 0.3 mm 1 mps 746 mmHg 79%
05:00 +22°C° 0.6 mm 1 mps 746 mmHg 80%
06:00 +21°C° 0.6 mm 2 mps 746 mmHg 80%
07:00 +23°C° 0.6 mm 2 mps 747 mmHg 81%
08:00 +24°C° 0.1 mm 2 mps 747 mmHg 77%
09:00 +25°C° 0.1 mm 2 mps 747 mmHg 73%
10:00 +26°C° 0.1 mm 2 mps 747 mmHg 69%
11:00 +26°C° 1 mm 2 mps 747 mmHg 67%
12:00 +27°C° 1 mm 2 mps 747 mmHg 66%
13:00 +28°C° 1 mm 2 mps 746 mmHg 64%
14:00 +28°C° 1 mm 2 mps 746 mmHg 63%
15:00 +28°C° 1 mm 2 mps 746 mmHg 62%
16:00 +28°C° 1 mm 1 mps 746 mmHg 60%
17:00 +27°C° 0.8 mm 1 mps 746 mmHg 64%
18:00 +27°C° 0.8 mm 1 mps 746 mmHg 68%
19:00 +26°C° 0.8 mm 1 mps 746 mmHg 72%
20:00 +25°C° 0.6 mm 1 mps 746 mmHg 74%
21:00 +24°C° 0.6 mm 1 mps 746 mmHg 77%
22:00 +23°C° 0.6 mm 1 mps 746 mmHg 79%
23:00 +23°C° 0.2 mm 1 mps 746 mmHg 81%

Tomorrow, 15 August, Saturday

Time Temperature Precipitation Wind Pressure Humidity
00:00 +22°C° 0.2 mm 1 mps 747 mmHg 82%
01:00 +22°C° 0.2 mm 1 mps 747 mmHg 84%
02:00 +22°C° 0 mm 1 mps 747 mmHg 84%
03:00 +21°C° 0 mm 1 mps 746 mmHg 84%
04:00 +21°C° 0 mm 1 mps 746 mmHg 85%
05:00 +21°C° 0 mm 1 mps 746 mmHg 84%
06:00 +22°C° 0 mm 1 mps 747 mmHg 82%
07:00 +22°C° 0 mm 1 mps 747 mmHg 81%
08:00 +24°C° 0 mm 1 mps 747 mmHg 74%
09:00 +25°C° 0 mm 1 mps 747 mmHg 67%
10:00 +27°C° 0 mm 2 mps 747 mmHg 60%
11:00 +28°C° 0 mm 2 mps 747 mmHg 56%
12:00 +29°C° 0 mm 2 mps 747 mmHg 51%
13:00 +30°C° 0 mm 2 mps 747 mmHg 46%
14:00 +30°C° 0.1 mm 2 mps 746 mmHg 46%
15:00 +30°C° 0.1 mm 1 mps 746 mmHg 46%
16:00 +30°C° 0.1 mm 1 mps 746 mmHg 45%
17:00 +29°C° 0 mm 1 mps 746 mmHg 51%
18:00 +28°C° 0 mm 1 mps 745 mmHg 56%
19:00 +27°C° 0 mm 1 mps 745 mmHg 61%
20:00 +26°C° 0.1 mm 1 mps 746 mmHg 64%
21:00 +23°C° 0.1 mm 0 mps 746 mmHg 68%
22:00 +22°C° 0.1 mm 0 mps 746 mmHg 71%
23:00 +22°C° 0.1 mm 0 mps 746 mmHg 72%

Day after tomorrow, 16 August, Sunday

Time Temperature Precipitation Wind Pressure Humidity
00:00 +21°C° 0.1 mm 0 mps 746 mmHg 74%
01:00 +21°C° 0.1 mm 0 mps 745 mmHg 76%
02:00 +20°C° 0 mm 0 mps 745 mmHg 77%
03:00 +20°C° 0 mm 0 mps 745 mmHg 79%
04:00 +20°C° 0 mm 0 mps 745 mmHg 80%
05:00 +20°C° 0 mm 0 mps 745 mmHg 78%
06:00 +21°C° 0 mm 0 mps 745 mmHg 77%
07:00 +21°C° 0 mm 0 mps 745 mmHg 75%
08:00 +23°C° 0 mm 0 mps 745 mmHg 69%
09:00 +27°C° 0 mm 1 mps 746 mmHg 62%
10:00 +28°C° 0 mm 1 mps 746 mmHg 56%
11:00 +29°C° 0 mm 1 mps 745 mmHg 50%
12:00 +31°C° 0 mm 1 mps 745 mmHg 45%
13:00 +32°C° 0 mm 1 mps 745 mmHg 39%
14:00 +32°C° 0 mm 1 mps 744 mmHg 38%
15:00 +32°C° 0 mm 1 mps 744 mmHg 37%
16:00 +32°C° 0 mm 1 mps 744 mmHg 36%
17:00 +31°C° 0 mm 1 mps 744 mmHg 40%
18:00 +29°C° 0 mm 1 mps 744 mmHg 45%
19:00 +26°C° 0 mm 0 mps 744 mmHg 50%
20:00 +25°C° 0 mm 0 mps 744 mmHg 53%
21:00 +26°C° 0 mm 1 mps 744 mmHg 56%
22:00 +25°C° 0 mm 1 mps 744 mmHg 60%
23:00 +24°C° 0 mm 1 mps 744 mmHg 62%

17 August, Monday

Time Temperature Precipitation Wind Pressure Humidity
00:00 +24°C° 0 mm 1 mps 744 mmHg 65%
01:00 +24°C° 0 mm 1 mps 744 mmHg 67%
02:00 +23°C° 0.1 mm 1 mps 744 mmHg 69%
03:00 +23°C° 0.1 mm 1 mps 744 mmHg 71%
04:00 +22°C° 0.1 mm 1 mps 744 mmHg 73%
05:00 +22°C° 0.9 mm 1 mps 744 mmHg 75%
06:00 +22°C° 0.9 mm 1 mps 744 mmHg 76%
07:00 +22°C° 0.9 mm 1 mps 744 mmHg 78%
08:00 +22°C° 0.3 mm 1 mps 744 mmHg 80%
09:00 +22°C° 0.3 mm 1 mps 745 mmHg 81%
10:00 +21°C° 0.3 mm 2 mps 745 mmHg 83%
11:00 +23°C° 0 mm 2 mps 745 mmHg 76%
12:00 +25°C° 0 mm 2 mps 745 mmHg 69%
13:00 +26°C° 0 mm 2 mps 745 mmHg 63%
14:00 +26°C° 0.2 mm 2 mps 745 mmHg 63%
15:00 +26°C° 0.2 mm 2 mps 744 mmHg 64%
16:00 +26°C° 0.2 mm 2 mps 744 mmHg 64%
17:00 +25°C° 0.5 mm 2 mps 744 mmHg 67%
18:00 +24°C° 0.5 mm 2 mps 744 mmHg 69%
19:00 +24°C° 0.5 mm 2 mps 744 mmHg 71%
20:00 +23°C° 0 mm 1 mps 745 mmHg 72%
21:00 +22°C° 0 mm 1 mps 745 mmHg 74%
22:00 +22°C° 0 mm 1 mps 745 mmHg 75%
23:00 +21°C° 0.1 mm 1 mps 745 mmHg 75%

18 August, Tuesday

Time Temperature Precipitation Wind Pressure Humidity
00:00 +21°C° 0.1 mm 1 mps 745 mmHg 76%
01:00 +20°C° 0.1 mm 1 mps 745 mmHg 77%
02:00 +20°C° 0 mm 1 mps 745 mmHg 77%
03:00 +19°C° 0 mm 1 mps 745 mmHg 78%
04:00 +19°C° 0 mm 1 mps 745 mmHg 79%
05:00 +19°C° 0 mm 1 mps 745 mmHg 78%
06:00 +20°C° 0 mm 1 mps 745 mmHg 77%
07:00 +20°C° 0 mm 1 mps 745 mmHg 76%
08:00 +20°C° 0 mm 2 mps 745 mmHg 69%
09:00 +23°C° 0 mm 2 mps 746 mmHg 63%
10:00 +24°C° 0 mm 3 mps 746 mmHg 57%
11:00 +25°C° 0 mm 3 mps 746 mmHg 52%
12:00 +26°C° 0 mm 3 mps 745 mmHg 48%
13:00 +27°C° 0 mm 3 mps 745 mmHg 43%
14:00 +27°C° 0 mm 3 mps 745 mmHg 44%
15:00 +27°C° 0 mm 4 mps 745 mmHg 45%
16:00 +27°C° 0 mm 4 mps 745 mmHg 46%
17:00 +26°C° 0 mm 3 mps 745 mmHg 51%
18:00 +25°C° 0 mm 3 mps 745 mmHg 57%
19:00 +24°C° 0 mm 2 mps 745 mmHg 62%
20:00 +23°C° 0 mm 2 mps 745 mmHg 66%
21:00 +21°C° 0 mm 2 mps 746 mmHg 69%
22:00 +20°C° 0 mm 2 mps 746 mmHg 73%
23:00 +19°C° 0 mm 2 mps 746 mmHg 74%

19 August, Wednesday

Time Temperature Precipitation Wind Pressure Humidity
00:00 +19°C° 0 mm 2 mps 746 mmHg 76%
01:00 +19°C° 0 mm 1 mps 746 mmHg 78%
02:00 +19°C° 0 mm 1 mps 746 mmHg 79%
03:00 +18°C° 0 mm 1 mps 746 mmHg 80%
04:00 +18°C° 0 mm 1 mps 746 mmHg 81%
05:00 +17°C° 0 mm 2 mps 746 mmHg 78%
06:00 +18°C° 0 mm 2 mps 746 mmHg 76%
07:00 +18°C° 0 mm 2 mps 746 mmHg 74%
08:00 +20°C° 0 mm 2 mps 746 mmHg 67%
09:00 +21°C° 0 mm 3 mps 746 mmHg 60%
10:00 +24°C° 0 mm 3 mps 745 mmHg 53%
11:00 +25°C° 0 mm 3 mps 745 mmHg 49%
12:00 +26°C° 0 mm 3 mps 745 mmHg 45%
13:00 +27°C° 0 mm 3 mps 744 mmHg 41%
14:00 +27°C° 0 mm 3 mps 744 mmHg 40%
15:00 +28°C° 0 mm 3 mps 743 mmHg 39%
16:00 +28°C° 0 mm 3 mps 743 mmHg 39%
17:00 +27°C° 0 mm 2 mps 743 mmHg 44%
18:00 +26°C° 0 mm 2 mps 742 mmHg 49%
19:00 +24°C° 0 mm 1 mps 742 mmHg 54%
20:00 +23°C° 0 mm 1 mps 742 mmHg 56%
21:00 +22°C° 0 mm 1 mps 742 mmHg 58%
22:00 +21°C° 0 mm 1 mps 742 mmHg 60%
23:00 +21°C° 0 mm 1 mps 742 mmHg 60%
Show more